When you browse on this site, cookies collect data to enhance your experience and personalize the content and advertising you see.
Visit our Privacy Policy to learn more. By continuing to use the site, you agree to this use of cookies and data.
  • en France
  • Liste des pays
  • À 7 jours
  • Température de l'eau
  • Carte satellitaire
  • Carte météo
  • Widgets météo
  • user-avatar
    Se connecter

    Météo par heure à Innsbruck

    Ce jour, 19 Juin, Mercredi

    Heure Température Précipitation Vent Pression Humidité
    00:00 +8°C° 0.7 mm 0 m/s 597 mmHg 92%
    01:00 +7°C° 0.7 mm 0 m/s 597 mmHg 94%
    02:00 +8°C° 0.3 mm 1 m/s 597 mmHg 93%
    03:00 +8°C° 0.3 mm 1 m/s 596 mmHg 93%
    04:00 +8°C° 0.3 mm 1 m/s 596 mmHg 92%
    05:00 +9°C° 0.1 mm 0 m/s 597 mmHg 88%
    06:00 +10°C° 0.1 mm 0 m/s 597 mmHg 85%
    07:00 +11°C° 0.1 mm 0 m/s 598 mmHg 81%
    08:00 +12°C° 0.7 mm 0 m/s 598 mmHg 75%
    09:00 +14°C° 0.7 mm 0 m/s 599 mmHg 68%
    10:00 +15°C° 0.7 mm 0 m/s 599 mmHg 62%
    11:00 +16°C° 0.7 mm 0 m/s 599 mmHg 57%
    12:00 +17°C° 0.7 mm 0 m/s 600 mmHg 51%
    13:00 +20°C° 0.7 mm 1 m/s 600 mmHg 46%
    14:00 +20°C° 0.4 mm 1 m/s 600 mmHg 47%
    15:00 +19°C° 0.4 mm 1 m/s 599 mmHg 48%
    16:00 +19°C° 0.4 mm 1 m/s 599 mmHg 48%
    17:00 +18°C° 0.4 mm 1 m/s 599 mmHg 55%
    18:00 +16°C° 0.4 mm 1 m/s 598 mmHg 62%
    19:00 +14°C° 0.4 mm 0 m/s 598 mmHg 69%
    20:00 +13°C° 0.5 mm 1 m/s 597 mmHg 74%
    21:00 +11°C° 0.5 mm 1 m/s 597 mmHg 79%
    22:00 +10°C° 0.5 mm 1 m/s 596 mmHg 84%
    23:00 +9°C° 0.1 mm 1 m/s 596 mmHg 84%

    Demain, 20 Juin, Jeudi

    Heure Température Précipitation Vent Pression Humidité
    00:00 +9°C° 0.1 mm 1 m/s 596 mmHg 84%
    01:00 +9°C° 0.1 mm 1 m/s 596 mmHg 84%
    02:00 +8°C° 0.1 mm 1 m/s 595 mmHg 85%
    03:00 +7°C° 0.1 mm 1 m/s 595 mmHg 86%
    04:00 +7°C° 0.1 mm 1 m/s 595 mmHg 86%
    05:00 +9°C° 0 mm 1 m/s 596 mmHg 83%
    06:00 +9°C° 0 mm 0 m/s 597 mmHg 80%
    07:00 +11°C° 0 mm 0 m/s 598 mmHg 76%
    08:00 +13°C° 0.7 mm 1 m/s 598 mmHg 75%
    09:00 +14°C° 0.7 mm 1 m/s 598 mmHg 74%
    10:00 +15°C° 0.7 mm 2 m/s 598 mmHg 72%
    11:00 +15°C° 1.3 mm 2 m/s 598 mmHg 72%
    12:00 +15°C° 1.3 mm 2 m/s 598 mmHg 72%
    13:00 +15°C° 1.3 mm 2 m/s 598 mmHg 71%
    14:00 +15°C° 1.3 mm 2 m/s 598 mmHg 75%
    15:00 +14°C° 1.3 mm 1 m/s 598 mmHg 78%
    16:00 +13°C° 1.3 mm 1 m/s 598 mmHg 81%
    17:00 +12°C° 1 mm 1 m/s 597 mmHg 86%
    18:00 +11°C° 1 mm 1 m/s 597 mmHg 90%
    19:00 +9°C° 1 mm 2 m/s 597 mmHg 95%
    20:00 +10°C° 0.7 mm 1 m/s 597 mmHg 96%
    21:00 +9°C° 0.7 mm 1 m/s 597 mmHg 96%
    22:00 +9°C° 0.7 mm 1 m/s 597 mmHg 96%
    23:00 +9°C° 0.2 mm 1 m/s 597 mmHg 95%

    Après-demain, 21 Juin, Vendredi

    Heure Température Précipitation Vent Pression Humidité
    00:00 +7°C° 0.2 mm 0 m/s 597 mmHg 94%
    01:00 +7°C° 0.2 mm 0 m/s 597 mmHg 93%
    02:00 +7°C° 0 mm 0 m/s 597 mmHg 92%
    03:00 +7°C° 0 mm 0 m/s 597 mmHg 92%
    04:00 +7°C° 0 mm 0 m/s 597 mmHg 91%
    05:00 +8°C° 0.5 mm 1 m/s 597 mmHg 90%
    06:00 +9°C° 0.5 mm 1 m/s 597 mmHg 89%
    07:00 +9°C° 0.5 mm 1 m/s 598 mmHg 88%
    08:00 +11°C° 0.2 mm 1 m/s 598 mmHg 80%
    09:00 +12°C° 0.2 mm 1 m/s 599 mmHg 72%
    10:00 +14°C° 0.2 mm 1 m/s 600 mmHg 63%
    11:00 +15°C° 0.1 mm 1 m/s 600 mmHg 58%
    12:00 +16°C° 0.1 mm 1 m/s 601 mmHg 52%
    13:00 +17°C° 0.1 mm 2 m/s 601 mmHg 47%
    14:00 +16°C° 0.5 mm 2 m/s 600 mmHg 56%
    15:00 +15°C° 0.5 mm 2 m/s 600 mmHg 65%
    16:00 +14°C° 0.5 mm 2 m/s 599 mmHg 74%
    17:00 +14°C° 1 mm 1 m/s 599 mmHg 79%
    18:00 +13°C° 1 mm 1 m/s 598 mmHg 85%
    19:00 +12°C° 1 mm 1 m/s 598 mmHg 90%
    20:00 +11°C° 0.8 mm 1 m/s 598 mmHg 91%
    21:00 +10°C° 0.8 mm 1 m/s 598 mmHg 93%
    22:00 +10°C° 0.8 mm 1 m/s 598 mmHg 94%
    23:00 +8°C° 0.1 mm 0 m/s 597 mmHg 94%

    22 Juin, Samedi

    Heure Température Précipitation Vent Pression Humidité
    00:00 +8°C° 0.1 mm 0 m/s 597 mmHg 94%
    01:00 +8°C° 0.1 mm 0 m/s 597 mmHg 94%
    02:00 +8°C° 0.2 mm 1 m/s 597 mmHg 95%
    03:00 +8°C° 0.2 mm 1 m/s 596 mmHg 95%
    04:00 +8°C° 0.2 mm 1 m/s 596 mmHg 95%
    05:00 +9°C° 0.2 mm 1 m/s 597 mmHg 94%
    06:00 +9°C° 0.2 mm 1 m/s 597 mmHg 93%
    07:00 +9°C° 0.2 mm 1 m/s 597 mmHg 93%
    08:00 +10°C° 0.8 mm 1 m/s 598 mmHg 89%
    09:00 +11°C° 0.8 mm 1 m/s 598 mmHg 86%
    10:00 +13°C° 0.8 mm 1 m/s 598 mmHg 82%
    11:00 +13°C° 1.7 mm 1 m/s 598 mmHg 81%
    12:00 +13°C° 1.7 mm 1 m/s 599 mmHg 80%
    13:00 +14°C° 1.7 mm 1 m/s 599 mmHg 79%
    14:00 +14°C° 2 mm 1 m/s 598 mmHg 81%
    15:00 +13°C° 2 mm 1 m/s 598 mmHg 82%
    16:00 +13°C° 2 mm 1 m/s 598 mmHg 84%
    17:00 +12°C° 1.3 mm 1 m/s 598 mmHg 87%
    18:00 +11°C° 1.3 mm 1 m/s 598 mmHg 91%
    19:00 +10°C° 1.3 mm 1 m/s 597 mmHg 94%
    20:00 +10°C° 0.3 mm 1 m/s 597 mmHg 95%
    21:00 +9°C° 0.3 mm 1 m/s 598 mmHg 96%
    22:00 +9°C° 0.3 mm 1 m/s 598 mmHg 97%
    23:00 +8°C° 0 mm 1 m/s 598 mmHg 96%

    23 Juin, Dimanche

    Heure Température Précipitation Vent Pression Humidité
    00:00 +7°C° 0 mm 0 m/s 597 mmHg 96%
    01:00 +6°C° 0 mm 0 m/s 597 mmHg 95%
    02:00 +5°C° 0 mm 0 m/s 597 mmHg 95%
    03:00 +5°C° 0 mm 0 m/s 596 mmHg 94%
    04:00 +4°C° 0 mm 0 m/s 596 mmHg 94%
    05:00 +6°C° 0 mm 0 m/s 597 mmHg 90%
    06:00 +8°C° 0 mm 0 m/s 598 mmHg 86%
    07:00 +9°C° 0 mm 0 m/s 599 mmHg 82%
    08:00 +11°C° 0 mm 0 m/s 600 mmHg 73%
    09:00 +15°C° 0 mm 1 m/s 601 mmHg 64%
    10:00 +18°C° 0 mm 1 m/s 602 mmHg 55%
    11:00 +19°C° 0 mm 1 m/s 602 mmHg 51%
    12:00 +19°C° 0 mm 1 m/s 603 mmHg 48%
    13:00 +20°C° 0 mm 1 m/s 603 mmHg 44%
    14:00 +19°C° 0.1 mm 2 m/s 603 mmHg 46%
    15:00 +19°C° 0.1 mm 2 m/s 603 mmHg 48%
    16:00 +18°C° 0.1 mm 2 m/s 602 mmHg 49%
    17:00 +17°C° 0.1 mm 2 m/s 602 mmHg 59%
    18:00 +16°C° 0.1 mm 2 m/s 602 mmHg 69%
    19:00 +14°C° 0.1 mm 2 m/s 601 mmHg 78%
    20:00 +12°C° 0 mm 1 m/s 601 mmHg 84%
    21:00 +10°C° 0 mm 1 m/s 600 mmHg 89%
    22:00 +7°C° 0 mm 0 m/s 600 mmHg 95%
    23:00 +7°C° 0 mm 0 m/s 600 mmHg 94%

    24 Juin, Lundi

    Heure Température Précipitation Vent Pression Humidité
    00:00 +8°C° 0 mm 1 m/s 600 mmHg 93%
    01:00 +8°C° 0 mm 1 m/s 600 mmHg 91%
    02:00 +8°C° 0 mm 1 m/s 600 mmHg 89%
    03:00 +8°C° 0 mm 1 m/s 600 mmHg 87%
    04:00 +8°C° 0 mm 1 m/s 600 mmHg 85%
    05:00 +10°C° 0 mm 1 m/s 601 mmHg 76%
    06:00 +12°C° 0 mm 0 m/s 602 mmHg 68%
    07:00 +14°C° 0 mm 0 m/s 604 mmHg 59%
    08:00 +16°C° 0 mm 0 m/s 605 mmHg 51%
    09:00 +20°C° 0 mm 1 m/s 605 mmHg 43%
    10:00 +22°C° 0 mm 1 m/s 606 mmHg 35%
    11:00 +23°C° 0 mm 1 m/s 607 mmHg 33%
    12:00 +24°C° 0 mm 1 m/s 607 mmHg 30%
    13:00 +25°C° 0 mm 2 m/s 607 mmHg 28%
    14:00 +25°C° 0 mm 2 m/s 607 mmHg 30%
    15:00 +25°C° 0 mm 2 m/s 607 mmHg 31%
    16:00 +25°C° 0 mm 2 m/s 607 mmHg 32%
    17:00 +23°C° 0 mm 2 m/s 606 mmHg 43%
    18:00 +21°C° 0 mm 1 m/s 606 mmHg 55%
    19:00 +20°C° 0 mm 1 m/s 605 mmHg 67%
    20:00 +16°C° 0 mm 1 m/s 605 mmHg 69%
    21:00 +14°C° 0 mm 1 m/s 604 mmHg 72%
    22:00 +12°C° 0 mm 1 m/s 604 mmHg 75%
    23:00 +12°C° 0 mm 1 m/s 603 mmHg 73%
    Voir plus